When you browse on this site, cookies collect data to enhance your experience and personalize the content and advertising you see.
Visit our Privacy Policy to learn more. By continuing to use the site, you agree to this use of cookies and data.
  • In Hungary
  • List of Countries
  • For 7 days
  • Water Temperature
  • Weather Map
  • News
  • Weather Widgets
  • user-avatar
    Login

    Hourly Weather Kotovo

    Today, 23 February, Sunday

    Time Temperature Precipitation Wind Pressure Humidity
    00:00 -3°C° 0.8 mm 9 mps 730 mmHg 94%
    01:00 -3°C° 0.8 mm 9 mps 729 mmHg 93%
    02:00 -1°C° 0 mm 8 mps 728 mmHg 93%
    03:00 -1°C° 0.6 mm 7 mps 728 mmHg 93%
    04:00 -1°C° 0.6 mm 6 mps 727 mmHg 94%
    05:00 -1°C° 0.6 mm 6 mps 726 mmHg 94%
    06:00 0°C° 0.7 mm 5 mps 726 mmHg 90%
    07:00 0°C° 0.7 mm 5 mps 726 mmHg 86%
    08:00 0°C° 0.7 mm 5 mps 727 mmHg 81%
    09:00 0°C° 0.1 mm 5 mps 726 mmHg 83%
    10:00 0°C° 0.1 mm 5 mps 726 mmHg 84%
    11:00 0°C° 0.1 mm 5 mps 726 mmHg 85%
    12:00 0°C° 0.1 mm 5 mps 726 mmHg 81%
    13:00 +1°C° 0.1 mm 5 mps 727 mmHg 77%
    14:00 +1°C° 0.1 mm 5 mps 727 mmHg 74%
    15:00 +1°C° 0 mm 5 mps 726 mmHg 77%
    16:00 0°C° 0 mm 5 mps 726 mmHg 81%
    17:00 0°C° 0 mm 5 mps 726 mmHg 84%
    18:00 0°C° 0.1 mm 5 mps 726 mmHg 85%
    19:00 0°C° 0.1 mm 5 mps 726 mmHg 87%
    20:00 0°C° 0.1 mm 5 mps 726 mmHg 88%
    21:00 -1°C° 0 mm 5 mps 725 mmHg 89%
    22:00 -1°C° 0 mm 5 mps 725 mmHg 90%
    23:00 -1°C° 0 mm 5 mps 724 mmHg 91%

    Tomorrow, 24 February, Monday

    Time Temperature Precipitation Wind Pressure Humidity
    00:00 -1°C° 0.1 mm 4 mps 724 mmHg 92%
    01:00 -1°C° 0.1 mm 4 mps 724 mmHg 93%
    02:00 -1°C° 0.1 mm 4 mps 724 mmHg 94%
    03:00 -1°C° 0.1 mm 4 mps 724 mmHg 94%
    04:00 0°C° 0.1 mm 3 mps 724 mmHg 94%
    05:00 -1°C° 0.1 mm 3 mps 724 mmHg 94%
    06:00 -1°C° 0.1 mm 3 mps 724 mmHg 94%
    07:00 -1°C° 0.1 mm 3 mps 725 mmHg 93%
    08:00 -1°C° 0.1 mm 3 mps 725 mmHg 93%
    09:00 -1°C° 0 mm 4 mps 725 mmHg 86%
    10:00 0°C° 0 mm 4 mps 725 mmHg 79%
    11:00 +1°C° 0 mm 5 mps 726 mmHg 73%
    12:00 0°C° 0.1 mm 5 mps 726 mmHg 74%
    13:00 0°C° 0.1 mm 5 mps 727 mmHg 74%
    14:00 0°C° 0.1 mm 5 mps 727 mmHg 75%
    15:00 -1°C° 0 mm 5 mps 728 mmHg 73%
    16:00 -2°C° 0 mm 4 mps 729 mmHg 71%
    17:00 -1°C° 0 mm 3 mps 729 mmHg 69%
    18:00 -2°C° 0 mm 3 mps 730 mmHg 70%
    19:00 -2°C° 0 mm 3 mps 731 mmHg 71%
    20:00 -2°C° 0 mm 3 mps 731 mmHg 72%
    21:00 -4°C° 0 mm 3 mps 732 mmHg 73%
    22:00 -4°C° 0 mm 4 mps 732 mmHg 73%
    23:00 -4°C° 0 mm 4 mps 732 mmHg 74%

    Day after tomorrow, 25 February, Tuesday

    Time Temperature Precipitation Wind Pressure Humidity
    00:00 -4°C° 0 mm 4 mps 732 mmHg 75%
    01:00 -4°C° 0 mm 4 mps 732 mmHg 75%
    02:00 -4°C° 0 mm 4 mps 733 mmHg 76%
    03:00 -4°C° 0 mm 4 mps 733 mmHg 77%
    04:00 -4°C° 0 mm 3 mps 732 mmHg 77%
    05:00 -4°C° 0 mm 3 mps 732 mmHg 78%
    06:00 -4°C° 0 mm 3 mps 732 mmHg 78%
    07:00 -4°C° 0 mm 3 mps 733 mmHg 78%
    08:00 -4°C° 0 mm 3 mps 733 mmHg 79%
    09:00 -2°C° 0 mm 3 mps 733 mmHg 72%
    10:00 -1°C° 0 mm 3 mps 732 mmHg 65%
    11:00 0°C° 0 mm 3 mps 732 mmHg 59%
    12:00 0°C° 0 mm 3 mps 732 mmHg 57%
    13:00 +1°C° 0 mm 3 mps 732 mmHg 55%
    14:00 +2°C° 0 mm 2 mps 731 mmHg 53%
    15:00 +1°C° 0 mm 2 mps 731 mmHg 58%
    16:00 -1°C° 0 mm 2 mps 730 mmHg 63%
    17:00 -1°C° 0 mm 2 mps 730 mmHg 68%
    18:00 -1°C° 0 mm 2 mps 729 mmHg 71%
    19:00 -1°C° 0 mm 3 mps 729 mmHg 74%
    20:00 -2°C° 0 mm 3 mps 728 mmHg 77%
    21:00 -3°C° 0.2 mm 4 mps 727 mmHg 83%
    22:00 -3°C° 0.2 mm 4 mps 726 mmHg 89%
    23:00 -4°C° 0.2 mm 5 mps 725 mmHg 94%

    26 February, Wednesday

    Time Temperature Precipitation Wind Pressure Humidity
    00:00 -2°C° 0.8 mm 5 mps 724 mmHg 95%
    01:00 -2°C° 0.8 mm 5 mps 724 mmHg 96%
    02:00 -1°C° 0.8 mm 4 mps 723 mmHg 96%
    03:00 -1°C° 0.1 mm 4 mps 723 mmHg 93%
    04:00 -1°C° 0.1 mm 4 mps 723 mmHg 89%
    05:00 -1°C° 0.1 mm 4 mps 723 mmHg 86%
    06:00 -2°C° 0 mm 4 mps 723 mmHg 86%
    07:00 -2°C° 0 mm 4 mps 724 mmHg 87%
    08:00 -2°C° 0 mm 4 mps 724 mmHg 87%
    09:00 -1°C° 0 mm 4 mps 724 mmHg 85%
    10:00 -1°C° 0 mm 4 mps 724 mmHg 83%
    11:00 -1°C° 0 mm 4 mps 725 mmHg 81%
    12:00 -1°C° 0 mm 4 mps 725 mmHg 79%
    13:00 0°C° 0 mm 4 mps 725 mmHg 78%
    14:00 0°C° 0 mm 4 mps 726 mmHg 77%
    15:00 +1°C° 0 mm 3 mps 726 mmHg 78%
    16:00 0°C° 0 mm 3 mps 726 mmHg 79%
    17:00 +1°C° 0 mm 2 mps 726 mmHg 81%
    18:00 +1°C° 0 mm 2 mps 727 mmHg 81%
    19:00 -1°C° 0 mm 2 mps 727 mmHg 82%
    20:00 -1°C° 0 mm 2 mps 728 mmHg 82%
    21:00 -1°C° 0 mm 2 mps 728 mmHg 85%
    22:00 -2°C° 0 mm 2 mps 728 mmHg 87%
    23:00 -2°C° 0 mm 2 mps 728 mmHg 89%

    27 February, Thursday

    Time Temperature Precipitation Wind Pressure Humidity
    00:00 -2°C° 0 mm 2 mps 729 mmHg 90%
    01:00 -2°C° 0 mm 2 mps 729 mmHg 91%
    02:00 -4°C° 0 mm 3 mps 729 mmHg 91%
    03:00 -3°C° 0 mm 2 mps 729 mmHg 92%
    04:00 -3°C° 0 mm 2 mps 729 mmHg 92%
    05:00 -3°C° 0 mm 2 mps 729 mmHg 92%
    06:00 -3°C° 0 mm 2 mps 729 mmHg 89%
    07:00 -2°C° 0 mm 3 mps 730 mmHg 86%
    08:00 -2°C° 0 mm 3 mps 730 mmHg 84%
    09:00 -1°C° 0 mm 3 mps 730 mmHg 79%
    10:00 +1°C° 0 mm 3 mps 730 mmHg 74%
    11:00 +2°C° 0 mm 3 mps 730 mmHg 69%
    12:00 +2°C° 0 mm 3 mps 730 mmHg 68%
    13:00 +2°C° 0 mm 3 mps 730 mmHg 67%
    14:00 +3°C° 0 mm 3 mps 730 mmHg 66%
    15:00 +3°C° 0 mm 2 mps 730 mmHg 72%
    16:00 +2°C° 0 mm 2 mps 730 mmHg 78%
    17:00 +1°C° 0 mm 2 mps 729 mmHg 83%
    18:00 +1°C° 0 mm 2 mps 729 mmHg 87%
    19:00 +1°C° 0 mm 1 mps 729 mmHg 90%
    20:00 +1°C° 0 mm 1 mps 729 mmHg 93%
    21:00 -1°C° 0.2 mm 2 mps 729 mmHg 94%
    22:00 -1°C° 0.2 mm 2 mps 729 mmHg 96%
    23:00 -1°C° 0.2 mm 2 mps 730 mmHg 97%

    28 February, Friday

    Time Temperature Precipitation Wind Pressure Humidity
    00:00 -2°C° 0.1 mm 2 mps 730 mmHg 95%
    01:00 -2°C° 0.1 mm 2 mps 730 mmHg 93%
    02:00 -2°C° 0.1 mm 2 mps 730 mmHg 91%
    03:00 -3°C° 0 mm 2 mps 730 mmHg 91%
    04:00 -3°C° 0 mm 2 mps 730 mmHg 91%
    05:00 -4°C° 0 mm 2 mps 730 mmHg 91%
    06:00 -4°C° 0 mm 2 mps 731 mmHg 90%
    07:00 -4°C° 0 mm 2 mps 731 mmHg 90%
    08:00 -4°C° 0 mm 2 mps 731 mmHg 89%
    09:00 -3°C° 0 mm 2 mps 731 mmHg 81%
    10:00 -2°C° 0 mm 2 mps 731 mmHg 72%
    11:00 -2°C° 0 mm 2 mps 731 mmHg 64%
    12:00 -1°C° 0 mm 2 mps 731 mmHg 61%
    13:00 -1°C° 0 mm 2 mps 731 mmHg 58%
    14:00 +1°C° 0 mm 2 mps 731 mmHg 55%
    15:00 -1°C° 0 mm 2 mps 731 mmHg 61%
    16:00 -2°C° 0 mm 2 mps 731 mmHg 67%
    17:00 0°C° 0 mm 1 mps 731 mmHg 73%
    18:00 -2°C° 0 mm 2 mps 731 mmHg 75%
    19:00 -2°C° 0 mm 2 mps 731 mmHg 77%
    20:00 -2°C° 0 mm 2 mps 731 mmHg 79%
    21:00 -2°C° 0 mm 3 mps 730 mmHg 78%
    22:00 -2°C° 0 mm 3 mps 730 mmHg 78%
    23:00 -2°C° 0 mm 3 mps 730 mmHg 78%
    Show more